Weather History for NW Arkansas Airport, AR

Change the Weather History Date:

Tuesday, April 2, 2013

  Actual Average Record
Temperature  
Mean Temperature 38 °F -  
Max Temperature 42 °F - - ()
Min Temperature 35 °F - - ()
Degree Days  
Heating Degree Days 26    
Moisture  
Dew Point 36 °F    
Average Humidity 96    
Maximum Humidity 100    
Minimum Humidity 67    
Precipitation  
Precipitation 0.36 in - - ()
Sea Level Pressure  
Sea Level Pressure 30.20 in    
Wind  
Wind Speed 11 mph (ENE)    
Max Wind Speed 17 mph    
Max Gust Speed 23 mph    
Visibility 8 miles    
Events Rain    
T = Trace of Precipitation, MM = Missing Value Source: NWS Daily Summary

Daily Weather History Graph

Daily Weather History Graph

Search for Another Location

Airport:

Trip Planner

Search our weather history database for the weather conditions in past years. The results will help you decide how hot, cold, wet, or windy it might be!

Date:

Astronomy

Apr. 02, 2013 Rise Set
Actual Time 7:01 AM CDT 7:40 PM CDT
Civil Twilight 6:35 AM CDT 8:06 PM CDT
Nautical Twilight 6:05 AM CDT 8:36 PM CDT
Astronomical Twilight 5:33 AM CDT 9:08 PM CDT
Moon 1:38 AM CDT (4/2) 12:00 PM CDT (4/2)
Length of Visible Light 13h 30m
Length of Day
12h 38m
Waning Gibbous, 55% of the Moon is Illuminated
Apr 2
Waning Gibbous
Apr 2
Last Quarter
Apr 10
New
Apr 18
First Quarter
Apr 25
Full

Hourly Weather History & Observations

Time (CDT) Temp. Windchill Dew Point Humidity Pressure Visibility Wind Dir Wind Speed Gust Speed Precip Events Conditions
12:53 AM 42.1 °F 36.1 °F 32.0 °F 67% 30.18 in 10.0 mi NE 10.4 mph - N/A   Overcast
1:53 AM 39.9 °F 33.9 °F 35.1 °F 83% 30.19 in 9.0 mi NE 9.2 mph 18.4 mph 0.00 in Rain Light Rain
2:53 AM 37.9 °F 30.9 °F 36.0 °F 93% 30.17 in 10.0 mi NE 10.4 mph - 0.00 in   Overcast
3:53 AM 37.9 °F 30.9 °F 36.0 °F 93% 30.19 in 10.0 mi NNE 10.4 mph - 0.01 in Rain Light Rain
4:53 AM 37.9 °F 30.9 °F 36.0 °F 93% 30.18 in 10.0 mi ENE 10.4 mph - 0.03 in Rain Light Rain
5:53 AM 37.0 °F 29.8 °F 36.0 °F 96% 30.18 in 10.0 mi NE 10.4 mph - 0.01 in Rain Light Rain
6:53 AM 37.0 °F 30.4 °F 35.1 °F 93% 30.20 in 10.0 mi ENE 9.2 mph - 0.00 in Rain Light Rain
7:53 AM 37.0 °F 29.3 °F 36.0 °F 96% 30.23 in 10.0 mi ENE 11.5 mph 18.4 mph 0.00 in   Overcast
8:53 AM 36.0 °F 27.1 °F 36.0 °F 100% 30.26 in 8.0 mi NE 13.8 mph - 0.03 in Rain Light Rain
9:53 AM 35.1 °F 26.4 °F 35.1 °F 100% 30.26 in 6.0 mi ENE 12.7 mph - 0.04 in Rain Rain
10:53 AM 36.0 °F 28.0 °F 36.0 °F 100% 30.24 in 5.0 mi East 11.5 mph 19.6 mph 0.08 in Rain Rain
11:53 AM 37.0 °F 29.8 °F 36.0 °F 96% 30.24 in 10.0 mi East 10.4 mph - 0.01 in Rain Light Rain
12:53 PM 37.0 °F 29.8 °F 37.0 °F 100% 30.23 in 10.0 mi ENE 10.4 mph - 0.00 in Rain Light Rain
1:53 PM 37.0 °F 29.3 °F 37.0 °F 100% 30.23 in 6.0 mi East 11.5 mph - 0.02 in Rain Light Rain
2:17 PM 37.4 °F 31.4 °F 37.4 °F 100% 30.22 in 5.0 mi ENE 8.1 mph - 0.03 in Rain Light Rain
2:49 PM 37.4 °F 28.9 °F 37.4 °F 100% 30.20 in 6.0 mi ENE 13.8 mph - 0.06 in Rain Light Rain
2:53 PM 37.9 °F 30.0 °F 37.9 °F 100% 30.22 in 6.0 mi ENE 12.7 mph - 0.07 in Rain Light Rain
3:03 PM 37.4 °F 29.3 °F 37.4 °F 100% 30.20 in 7.0 mi East 12.7 mph - 0.01 in Rain Light Rain
3:19 PM 37.4 °F 29.8 °F 37.4 °F 100% 30.21 in 8.0 mi East 11.5 mph 19.6 mph 0.01 in Rain Light Rain
3:39 PM 37.4 °F 30.8 °F 37.4 °F 100% 30.19 in 5.0 mi East 9.2 mph - 0.03 in Rain Light Rain
3:49 PM 37.4 °F 29.3 °F 37.4 °F 100% 30.18 in 6.0 mi ENE 12.7 mph - 0.04 in Rain Light Rain
3:53 PM 37.9 °F 29.6 °F 37.9 °F 100% 30.20 in 6.0 mi ENE 13.8 mph - 0.04 in Rain Light Rain
4:18 PM 37.4 °F 29.3 °F 37.4 °F 100% 30.18 in 10.0 mi East 12.7 mph - 0.01 in Rain Light Rain
4:34 PM 37.4 °F 29.3 °F 37.4 °F 100% 30.17 in 10.0 mi ENE 12.7 mph - 0.01 in   Overcast
4:53 PM 37.9 °F 31.5 °F 37.9 °F 100% 30.20 in 10.0 mi NE 9.2 mph - 0.01 in   Overcast
5:53 PM 37.9 °F 30.5 °F 37.9 °F 100% 30.19 in 10.0 mi ENE 11.5 mph - 0.00 in Rain Light Rain
6:22 PM 37.4 °F 29.8 °F 37.4 °F 100% 30.19 in 10.0 mi ENE 11.5 mph - 0.00 in Rain Light Rain
6:53 PM 37.9 °F 30.0 °F 37.9 °F 100% 30.20 in 3.0 mi ENE 12.7 mph - 0.01 in Rain Light Rain
7:08 PM 37.4 °F 29.8 °F 37.4 °F 100% 30.19 in 10.0 mi ENE 11.5 mph - 0.00 in Rain Light Rain
7:53 PM 37.0 °F 27.4 °F 37.0 °F 100% 30.19 in 10.0 mi ENE 17.3 mph - 0.00 in   Overcast
8:06 PM 37.4 °F 29.3 °F 35.6 °F 93% 30.18 in 10.0 mi ENE 12.7 mph 23.0 mph N/A   Overcast
8:53 PM 36.0 °F 27.5 °F 35.1 °F 97% 30.20 in 10.0 mi ENE 12.7 mph - 0.00 in   Overcast
9:53 PM 36.0 °F 29.0 °F 33.1 °F 89% 30.22 in 10.0 mi East 9.2 mph - N/A   Overcast
10:53 PM 36.0 °F 28.5 °F 32.0 °F 86% 30.22 in 10.0 mi East 10.4 mph - N/A   Overcast
11:53 PM 36.0 °F 28.0 °F 30.9 °F 82% 30.20 in 10.0 mi East 11.5 mph - N/A   Overcast